Weather History for Lakeview AWS, OR

Change the Weather History Date:

Wednesday, November 16, 2011

  Actual Average Record
Temperature  
Mean Temperature 37 °F -  
Max Temperature 48 °F 46 °F 72 °F (1936)
Min Temperature 26 °F 27 °F 6 °F (2014)
Degree Days  
Heating Degree Days 28    
Moisture  
Dew Point 29 °F    
Average Humidity 69    
Maximum Humidity 86    
Minimum Humidity 50    
Precipitation  
Precipitation 0.00 in - - ()
Sea Level Pressure  
Sea Level Pressure 30.18 in    
Wind  
Wind Speed 6 mph (South)    
Max Wind Speed 18 mph    
Max Gust Speed 25 mph    
Visibility 10 miles    
Events      
Averages and records for this station are not official NWS values.
T = Trace of Precipitation, MM = Missing Value Source: NWS Daily Summary

Daily Weather History Graph

Daily Weather History Graph

Search for Another Location

Airport:

Trip Planner

Search our weather history database for the weather conditions in past years. The results will help you decide how hot, cold, wet, or windy it might be!

Date:

Astronomy

Nov. 16, 2011 Rise Set
Actual Time 6:52 AM PST 4:39 PM PST
Civil Twilight 6:22 AM PST 5:09 PM PST
Nautical Twilight 5:48 AM PST 5:43 PM PST
Astronomical Twilight 5:15 AM PST 6:16 PM PST
Moon 9:59 PM PST (11/16) 11:31 AM PST (11/16)
Length of Visible Light 10h 46m
Length of Day
9h 46m
Waning Gibbous, 69% of the Moon is Illuminated
Nov 16
Waning Gibbous
Nov 18
Last Quarter
Nov 24
New
Dec 2
First Quarter
Dec 10
Full

Hourly Weather History & Observations

Time (PST) Temp. Windchill Dew Point Humidity Pressure Visibility Wind Dir Wind Speed Gust Speed Precip Events Conditions
12:15 AM 26.6 °F 21.2 °F 19.4 °F 74% 30.23 in 10.0 mi NNW 4.6 mph - N/A   Overcast
12:35 AM 26.6 °F - 19.4 °F 74% 30.22 in 10.0 mi Calm Calm - N/A   Overcast
12:55 AM 28.4 °F 24.6 °F 21.2 °F 74% 30.22 in 10.0 mi NNW 3.5 mph - N/A   Overcast
1:15 AM 28.4 °F 24.6 °F 21.2 °F 74% 30.21 in 10.0 mi NNW 3.5 mph - N/A   Overcast
1:35 AM 30.2 °F - 21.2 °F 69% 30.22 in 10.0 mi Calm Calm - N/A   Overcast
1:55 AM 30.2 °F - 21.2 °F 69% 30.22 in 10.0 mi Calm Calm - N/A   Overcast
2:15 AM 30.2 °F - 21.2 °F 69% 30.21 in 10.0 mi Calm Calm - N/A   Overcast
2:35 AM 30.2 °F - 23.0 °F 75% 30.21 in 10.0 mi Calm Calm - N/A   Overcast
2:55 AM 30.2 °F - 24.8 °F 80% 30.21 in 7.0 mi Calm Calm - N/A   Overcast
3:15 AM 30.2 °F - 24.8 °F 80% 30.21 in 7.0 mi Calm Calm - N/A   Overcast
3:35 AM 30.2 °F - 24.8 °F 80% 30.21 in 10.0 mi Calm Calm - N/A   Overcast
4:15 AM 30.2 °F - 26.6 °F 86% 30.21 in 10.0 mi Calm Calm - N/A   Overcast
4:35 AM 30.2 °F 26.7 °F 26.6 °F 86% 30.20 in 10.0 mi ESE 3.5 mph - N/A   Overcast
4:55 AM 30.2 °F - 26.6 °F 86% 30.20 in 10.0 mi Calm Calm - N/A   Overcast
5:15 AM 32.0 °F - 26.6 °F 80% 30.21 in 5.0 mi Calm Calm - N/A   Overcast
5:35 AM 33.8 °F - 28.4 °F 81% 30.21 in 3.0 mi Calm Calm - N/A   Overcast
5:55 AM 33.8 °F 28.6 °F 28.4 °F 81% 30.21 in 8.0 mi ESE 5.8 mph - N/A   Overcast
6:15 AM 33.8 °F - 28.4 °F 81% 30.21 in 10.0 mi Calm Calm - N/A   Overcast
6:35 AM 35.6 °F - 30.2 °F 81% 30.20 in 10.0 mi Calm Calm - N/A   Overcast
6:55 AM 35.6 °F 28.6 °F 30.2 °F 81% 30.20 in 10.0 mi ESE 9.2 mph - N/A   Overcast
7:15 AM 35.6 °F 31.7 °F 30.2 °F 81% 30.20 in 10.0 mi SSE 4.6 mph - N/A   Overcast
7:35 AM 35.6 °F 31.7 °F 30.2 °F 81% 30.21 in 9.0 mi SW 4.6 mph - N/A   Overcast
8:15 AM 35.6 °F 30.7 °F 30.2 °F 81% 30.22 in 10.0 mi WSW 5.8 mph - N/A   Overcast
8:35 AM 35.6 °F 31.7 °F 30.2 °F 81% 30.22 in 10.0 mi SSW 4.6 mph - N/A   Overcast
8:55 AM 37.4 °F 32.1 °F 32.0 °F 81% 30.23 in 10.0 mi South 6.9 mph - N/A   Overcast
9:15 AM 37.4 °F 32.1 °F 32.0 °F 81% 30.23 in 10.0 mi South 6.9 mph - N/A   Overcast
9:35 AM 39.2 °F 33.6 °F 32.0 °F 75% 30.23 in 10.0 mi South 8.1 mph - N/A   Overcast
9:55 AM 39.2 °F 33.0 °F 33.8 °F 81% 30.22 in 10.0 mi SSE 9.2 mph - N/A   Overcast
10:15 AM 41.0 °F 35.2 °F 30.2 °F 65% 30.23 in 10.0 mi South 9.2 mph - N/A   Overcast
10:35 AM 39.2 °F 31.6 °F 30.2 °F 70% 30.22 in 10.0 mi SSE 12.7 mph - N/A   Overcast
10:55 AM 41.0 °F 33.5 °F 32.0 °F 70% 30.22 in 10.0 mi SSE 13.8 mph - N/A   Overcast
11:15 AM 42.8 °F 35.8 °F 32.0 °F 66% 30.21 in 10.0 mi SSE 13.8 mph - N/A   Overcast
11:35 AM 42.8 °F 35.4 °F 30.2 °F 61% 30.19 in 10.0 mi SSE 15.0 mph 19.6 mph N/A   Mostly Cloudy
11:55 AM 44.6 °F 37.4 °F 32.0 °F 61% 30.19 in 10.0 mi South 16.1 mph - N/A   Partly Cloudy
12:15 PM 44.6 °F 37.8 °F 30.2 °F 57% 30.18 in 10.0 mi South 15.0 mph - N/A   Mostly Cloudy
12:35 PM 46.4 °F 40.1 °F 32.0 °F 57% 30.17 in 10.0 mi SSE 15.0 mph 21.9 mph N/A   Overcast
12:55 PM 46.4 °F 39.8 °F 32.0 °F 57% 30.16 in 10.0 mi SSE 16.1 mph - N/A   Mostly Cloudy
1:15 PM 46.4 °F 40.4 °F 32.0 °F 57% 30.15 in 10.0 mi SSE 13.8 mph 18.4 mph N/A   Scattered Clouds
1:35 PM 46.4 °F 40.7 °F 32.0 °F 57% 30.15 in 10.0 mi South 12.7 mph - N/A   Clear
1:55 PM 48.2 °F - 32.0 °F 54% 30.14 in 10.0 mi South 12.7 mph 18.4 mph N/A   Clear
2:15 PM 48.2 °F - 32.0 °F 54% 30.13 in 10.0 mi South 12.7 mph - N/A   Clear
2:35 PM 46.4 °F 40.7 °F 32.0 °F 57% 30.13 in 10.0 mi South 12.7 mph - N/A   Clear
3:15 PM 46.4 °F 41.9 °F 32.0 °F 57% 30.13 in 10.0 mi South 9.2 mph - N/A   Clear
3:35 PM 46.4 °F 41.9 °F 32.0 °F 57% 30.13 in 10.0 mi South 9.2 mph - N/A   Clear
3:55 PM 48.2 °F - 30.2 °F 50% 30.13 in 10.0 mi SSW 12.7 mph - N/A   Clear
4:35 PM 44.6 °F 40.7 °F 30.2 °F 57% 30.12 in 10.0 mi South 6.9 mph - N/A   Clear
4:55 PM 42.8 °F 38.0 °F 30.2 °F 61% 30.13 in 10.0 mi SSW 8.1 mph - N/A   Scattered Clouds
5:35 PM 46.4 °F 41.1 °F 30.2 °F 53% 30.13 in 10.0 mi SW 11.5 mph - N/A   Partly Cloudy
5:55 PM 46.4 °F 41.5 °F 30.2 °F 53% 30.13 in 10.0 mi SW 10.4 mph - N/A   Clear
6:15 PM 44.6 °F 39.2 °F 30.2 °F 57% 30.13 in 10.0 mi SSW 10.4 mph - N/A   Clear
6:55 PM 44.6 °F 39.7 °F 30.2 °F 57% 30.13 in 10.0 mi South 9.2 mph - N/A   Overcast
7:15 PM 42.8 °F 37.0 °F 32.0 °F 66% 30.13 in 10.0 mi South 10.4 mph - N/A   Mostly Cloudy
7:35 PM 42.8 °F 37.0 °F 32.0 °F 66% 30.14 in 10.0 mi South 10.4 mph - N/A   Overcast
8:15 PM 42.8 °F 37.0 °F 32.0 °F 66% 30.14 in 10.0 mi South 10.4 mph - N/A   Overcast
8:35 PM 42.8 °F 36.2 °F 32.0 °F 66% 30.15 in 10.0 mi South 12.7 mph - N/A   Overcast
8:55 PM 42.8 °F 35.8 °F 32.0 °F 66% 30.15 in 10.0 mi South 13.8 mph 19.6 mph N/A   Mostly Cloudy
9:15 PM 42.8 °F 34.8 °F 32.0 °F 66% 30.15 in 10.0 mi SSE 17.3 mph 20.7 mph N/A   Overcast
9:35 PM 42.8 °F 35.8 °F 32.0 °F 66% 30.15 in 10.0 mi South 13.8 mph 21.9 mph N/A   Overcast
10:15 PM 42.8 °F 36.2 °F 32.0 °F 66% 30.14 in 10.0 mi South 12.7 mph - N/A   Overcast
10:35 PM 42.8 °F 34.5 °F 32.0 °F 66% 30.13 in 10.0 mi SSE 18.4 mph 24.2 mph N/A   Overcast
10:55 PM 42.8 °F 34.8 °F 32.0 °F 66% 30.13 in 10.0 mi SSE 17.3 mph 25.3 mph N/A   Overcast
11:15 PM 42.8 °F 35.4 °F 32.0 °F 66% 30.13 in 10.0 mi South 15.0 mph 21.9 mph N/A   Overcast
11:35 PM 42.8 °F 35.1 °F 32.0 °F 66% 30.12 in 10.0 mi SSE 16.1 mph 20.7 mph N/A   Overcast
11:55 PM 42.8 °F 35.4 °F 32.0 °F 66% 30.12 in 10.0 mi SSE 15.0 mph - N/A   Overcast